Location: Pcim
(49.7500°N, 19.9670°E)
Time: 20:34:58
(UTC+02:00)

MOZHAYETS 4 - Pass Details

Date: 24 April 2024
Orbit: 652 x 670 km, 98.3° (Epoch: 20 May)

Event Time Altitude Azimuth Distance (km) Brightness Sun altitude
Rises 02:28:06 0° 122° (ESE) 3,013 11.1 -22.8°
Reaches altitude 10° 02:30:48 10° 106° (ESE) 2,104 10.4 -22.6°
Maximum altitude 02:34:07 20° 59° (ENE) 1,539 10.3 -22.3°
Drops below altitude 10° 02:37:28 10° 13° (NNE) 2,113 11.3 -22.0°
Sets 02:40:10 0° 357° (N) 3,031 12.0 -21.8°
